Location: Davayat
(45.9471°N, 3.1105°E)
Time: 17:18:52
(UTC+00:00)

CZ-2D R/B - Pass Details

Date: 01 December 2020
Orbit: 521 x 538 km, 97.4° (Epoch: 17 January)

Event Time Altitude Azimuth Distance (km) Brightness Sun altitude
Rises 17:49:55 0° 159° (SSE) 2,648 6.7 -17.8°
Reaches altitude 10° 17:52:00 10° 156° (SSE) 1,767 5.8 -18.1°
Maximum altitude 17:55:47 65° 75° (ENE) 585 3.1 -18.8°
Drops below altitude 10° 17:59:37 10° 353° (N) 1,792 5.9 -19.4°
Sets 18:01:45 0° 351° (N) 2,691 6.8 -19.8°
